Helicity
112 114 102 89 72 61 49 39 29 24 32 39 46 47 52 63 67 68 71 64 78 75
103 100 94 88 82 80 62 46 36 31 31 31 42 47 55 59 66 74 71 64 62 72
97 95 96 92 80 75 70 51 32 26 27 28 37 44 57 56 60 73 67 63 55 64
97 92 88 87 82 77 66 43 32 23 21 18 25 35 43 51 58 66 65 65 62 54
95 87 82 75 73 73 67 60 45 29 22 13 13 24 29 36 48 54 59 66 59 55
88 78 72 67 65 66 64 60 50 38 28 16 14 14 22 28 35 40 46 57 65 51
82 74 71 61 60 61 62 60 62 49 34 28 18 16 20 29 33 36 38 48 59 60
79 74 65 64 64 58 62 68 63 50 41 34 35 38 27 24 33 42 42 44 52 57
74 70 71 69 66 58 62 64 62 59 57 49 50 17 20 30 31 35 45 46 47 47
74 83 75 66 63 63 65 64 67 69 66 59 55 24 26 30 44 48 42 42 46 47
93 86 81 76 72 75 79 71 79 77 71 60 64 33 39 41 42 41 46 45 42 42
94 89 89 84 73 75 77 73 85 74 63 61 76 58 46 40 50 55 55 56 57 54
94 88 90 82 68 82 69 69 77 63 60 41 46 69 37 27 35 46 65 68 65 40
93 84 78 74 75 78 68 61 66 59 59 57 54 57 39 33 25 36 49 61 70 71
Wind_Speed
74 73 73 75 79 81 83 83 80 82 78 78 81 81 79 79 77 73 72 73 73 74
72 72 70 70 71 73 76 79 79 80 79 79 79 79 78 78 78 76 73 73 70 74
73 70 66 65 68 67 69 74 79 80 79 79 78 77 77 77 76 77 74 72 70 70
73 71 68 64 59 59 70 77 78 79 79 79 78 76 77 76 76 77 76 75 73 72
73 75 72 69 66 63 59 61 73 78 79 80 80 78 77 77 76 76 77 76 75 74
76 77 76 76 74 70 68 69 72 75 79 81 81 81 79 78 78 78 78 77 78 74
76 80 79 79 77 74 73 74 72 75 79 80 82 81 81 80 80 80 79 77 76 76
79 81 81 81 79 76 74 72 76 80 81 81 78 77 79 79 78 78 79 78 76 74
82 83 86 86 83 81 77 75 75 78 77 80 79 82 84 84 81 80 79 80 79 78
83 89 90 88 85 82 79 78 76 73 73 78 80 84 84 83 80 80 78 79 79 80
88 91 91 89 85 81 77 76 76 74 74 79 80 83 84 85 83 81 79 80 82 84
91 91 90 89 86 81 76 74 74 75 80 81 81 83 85 84 79 80 81 79 79 81
87 88 89 87 82 76 72 72 74 80 79 80 83 83 83 81 75 78 77 76 77 81
86 87 85 83 78 74 72 72 71 79 79 77 76 79 80 79 76 75 75 74 74 72
Wind_Direction
337 335 333 329 324 319 314 311 309 305 304 301 297 294 292 288 285 284 282 279 276 274
339 337 336 334 330 326 320 315 310 306 303 300 297 294 291 288 285 283 281 279 278 274
339 339 339 337 333 330 326 319 310 306 302 298 296 293 291 288 285 282 280 278 277 275
339 339 339 339 339 337 328 319 313 306 301 296 294 293 290 288 285 280 278 276 274 274
339 338 338 337 338 337 337 333 320 308 302 296 292 292 289 286 284 281 278 276 273 272
338 337 336 334 332 333 332 329 323 316 307 298 294 290 290 287 284 280 277 276 273 271
338 335 334 332 331 330 329 326 324 318 310 305 297 292 290 287 283 280 277 276 275 271
336 334 332 330 330 329 328 327 322 316 311 306 303 299 293 287 285 281 278 276 276 273
335 333 330 329 329 328 327 326 323 319 316 308 302 296 290 286 283 281 278 275 273 271
335 331 330 330 329 328 326 324 323 323 319 310 302 295 290 287 285 281 278 274 273 270
334 332 331 330 330 328 327 326 324 323 318 308 301 294 291 286 284 281 278 274 270 267
334 333 332 331 330 329 327 326 324 320 312 305 300 294 289 287 287 281 276 274 271 268
335 334 332 332 331 330 328 325 322 316 311 305 294 292 289 287 286 279 277 275 271 265
336 334 333 332 331 330 328 325 325 318 313 307 301 292 287 284 281 280 277 274 272 269